Location: Stockholm
(59.3333°N, 18.0500°E)
Time: 12:17:33
(UTC+02:00)

Lacrosse 5 - Pass Details

Date: 17 May 2020
Orbit: 714 x 723 km, 57.0° (Epoch: 08 June)

Event Time Altitude Azimuth Distance (km) Brightness Sun altitude
Rises 22:49:17 0° 271° (W) 3,121 5.6 -7.6°
Reaches altitude 10° 22:51:40 10° 268° (W) 2,200 4.7 -7.8°
Maximum altitude 22:56:41 67° 187° (S) 777 1.9 -8.1°
Drops below altitude 10° 23:01:42 10° 106° (ESE) 2,199 4.0 -8.3°
Sets 23:04:05 0° 104° (ESE) 3,119 4.8 -8.5°
